Location: *
(35.8942°N, 23.3025°E)
Time: 20:50:22
(UTC+00:00)

N. Korean satellite - Pass Details

Date: 28 November 2022
Orbit: 407 x 442 km, 97.3° (Epoch: 05 February)

Event Time Altitude Azimuth Distance (km) Brightness Sun altitude
Rises 04:13:07 0° 359° (N) 2,526 10.0 -12.6°
Reaches altitude 10° 04:15:21 10° 349° (N) 1,642 9.0 -12.2°
Maximum altitude 04:18:28 30° 287° (WNW) 873 7.3 -11.6°
Drops below altitude 10° 04:21:32 10° 225° (SW) 1,616 9.0 -11.0°
Sets 04:23:43 0° 214° (SW) 2,478 10.0 -10.5°
